Flag for Italy

Past Weather in Naples, Italy — Yesterday and Last 2 Weeks

Now
72 °F

Clear.


Feels Like: 77 °F
Forecast: 87 / 71 °F
Wind: 5 mph from Northeast

Location: Naples / Capodichino

Current Time: Jul 8, 2020 at 6:14:37 am

Latest Report: Jul 8, 2020 at 5:20 am


Visibility: 10 mi

Pressure: 29.95 "Hg

Humidity: 53%

Dew Point: 54 °F

Location of NaplesLocation

Past Weather in Naples — Graph

°F

Naples Temperature Yesterday

Maximum temperature yesterday: 90 °F (at 12:20 pm)
Minimum temperature yesterday: 73 °F (at 5:50 am)
Average temperature yesterday: 82 °F

High & Low Weather Summary for the Past Weeks

 TemperatureHumidityPressure
High91 °F (Jun 27, 2:20 pm)89% (Jul 4, 1:50 am)30.09 "Hg (Jul 4, 1:50 am)
Low68 °F (Jun 24, 5:20 am)25% (Jun 27, 12:20 pm)29.71 "Hg (Jul 6, 4:50 pm)
Average79 °F55%29.95 "Hg
* Reported Jun 23 5:20 am — Jul 8 5:20 am, Naples. Weather by CustomWeather, © 2020

Note: Actual official high and low records may vary slightly from our data, if they occured in-between our weather recording intervals... More about our weather records

Naples Weather History for the Previous 24 Hours

Scroll right to see more
 ConditionsComfort  
Time TempWeatherWind HumidityBarometerVisibility
5:20 am
Wed, Jul 8
72 °FClear.5 mph53%29.95 "Hg10 mi
4:50 am72 °FClear.7 mph53%29.95 "Hg10 mi
4:20 am73 °FClear.7 mph50%29.95 "Hg10 mi
3:50 am73 °FClear.7 mph50%29.92 "Hg10 mi
3:20 am73 °FClear.7 mph47%29.92 "Hg10 mi
2:50 am73 °FClear.7 mph47%29.92 "Hg10 mi
2:20 am73 °FClear.7 mph47%29.95 "Hg10 mi
1:50 am73 °FClear.8 mph47%29.95 "Hg10 mi
1:20 am73 °FClear.7 mph47%29.95 "Hg10 mi
12:50 am75 °FPassing clouds.8 mph44%29.95 "HgN/A
12:20 am75 °FPassing clouds.10 mph44%29.95 "HgN/A
11:50 pm
Tue, Jul 7
75 °FClear.10 mph44%29.92 "Hg10 mi
11:20 pm77 °FClear.10 mph42%29.92 "Hg10 mi
10:50 pm77 °FClear.12 mph42%29.92 "Hg10 mi
10:20 pm79 °FClear.10 mph39%29.92 "Hg10 mi
9:50 pm79 °FClear.13 mph42%29.89 "Hg10 mi
9:20 pm81 °FPassing clouds.9 mph39%29.89 "HgN/A
8:50 pm81 °FClear.9 mph42%29.89 "Hg10 mi
8:20 pm82 °FPassing clouds.10 mph40%29.86 "HgN/A
7:50 pm84 °FPassing clouds.8 mph40%29.86 "HgN/A
7:20 pm86 °FPassing clouds.9 mph38%29.86 "HgN/A
6:50 pm86 °FPassing clouds.10 mph38%29.86 "HgN/A
6:20 pm88 °FPassing clouds.10 mph35%29.86 "HgN/A
5:50 pm88 °FPassing clouds.9 mph35%29.86 "HgN/A
5:20 pm88 °FPassing clouds.10 mph35%29.83 "HgN/A
4:50 pm90 °FPassing clouds.8 mph36%29.83 "HgN/A
4:20 pm90 °FScattered clouds.10 mph36%29.83 "HgN/A
3:50 pm88 °FScattered clouds.7 mph38%29.83 "HgN/A
3:20 pm88 °FScattered clouds.9 mph52%29.83 "HgN/A
2:50 pm90 °FPassing clouds.5 mph43%29.83 "HgN/A
2:20 pm90 °FPassing clouds.6 mph38%29.83 "HgN/A
1:50 pm88 °FPassing clouds.6 mph52%29.83 "HgN/A
1:20 pm88 °FPassing clouds.7 mph52%29.83 "HgN/A
12:50 pm90 °FPassing clouds.9 mph38%29.83 "HgN/A
12:20 pm90 °FPassing clouds.8 mph38%29.83 "HgN/A
11:50 am88 °FPassing clouds.9 mph38%29.80 "HgN/A
11:20 am88 °FPassing clouds.7 mph38%29.80 "HgN/A
10:50 am84 °FPassing clouds.6 mph48%29.80 "HgN/A
10:20 am84 °FSunny.2 mph51%29.80 "Hg10 mi
9:50 am82 °FPassing clouds.6 mph58%29.80 "HgN/A
9:20 am82 °FSunny.2 mph62%29.80 "Hg10 mi
8:50 am81 °FPassing clouds.3 mph66%29.77 "HgN/A
8:20 am79 °FSunny.2 mph70%29.77 "Hg10 mi
7:50 am77 °FPassing clouds.3 mph69%29.77 "HgN/A
7:20 am75 °FSunny.6 mph74%29.77 "Hg10 mi
6:50 am75 °FSunny.2 mph74%29.74 "Hg10 mi
6:20 am73 °FPassing clouds.3 mph78%29.74 "HgN/A
Weather by CustomWeather, © 2020

See weather overview